TimeEST,TemperatureF,Dew PointF,Humidity,Sea Level PressureIn,VisibilityMPH,Wind Direction,Wind SpeedMPH,Gust SpeedMPH,PrecipitationIn,Events,Conditions,WindDirDegrees,DateUTC
12:54 AM,39.0,35.1,86,30.44,10.0,Calm,Calm,-,N/A,,Overcast,0,2013-11-06 05:54:00
1:54 AM,39.9,35.1,83,30.43,10.0,Calm,Calm,-,N/A,,Mostly Cloudy,0,2013-11-06 06:54:00
2:27 AM,39.2,35.6,87,30.42,10.0,Calm,Calm,-,N/A,,Mostly Cloudy,0,2013-11-06 07:27:00
2:54 AM,39.0,35.1,86,30.40,10.0,Calm,Calm,-,N/A,,Mostly Cloudy,0,2013-11-06 07:54:00
3:54 AM,39.0,36.0,89,30.40,10.0,Calm,Calm,-,N/A,,Overcast,0,2013-11-06 08:54:00
4:50 AM,39.2,35.6,87,30.38,10.0,ENE,3.5,-,N/A,,Overcast,60,2013-11-06 09:50:00
4:54 AM,39.0,35.1,86,30.39,10.0,Calm,Calm,-,N/A,,Overcast,0,2013-11-06 09:54:00
5:54 AM,39.9,36.0,86,30.38,10.0,Calm,Calm,-,N/A,,Overcast,0,2013-11-06 10:54:00
6:54 AM,39.0,36.0,89,30.38,10.0,Calm,Calm,-,N/A,,Mostly Cloudy,0,2013-11-06 11:54:00
7:54 AM,42.1,37.0,82,30.35,10.0,NNW,3.5,-,N/A,,Mostly Cloudy,330,2013-11-06 12:54:00
8:52 AM,46.4,39.2,76,30.33,10.0,Calm,Calm,-,N/A,,Scattered Clouds,0,2013-11-06 13:52:00
8:54 AM,46.0,39.9,79,30.32,10.0,Calm,Calm,-,N/A,,Partly Cloudy,0,2013-11-06 13:54:00
9:54 AM,51.1,41.0,68,30.29,10.0,SW,9.2,-,N/A,,Partly Cloudy,220,2013-11-06 14:54:00
10:54 AM,53.1,41.0,64,30.27,10.0,South,6.9,-,N/A,,Overcast,190,2013-11-06 15:54:00
11:54 AM,54.0,41.0,62,30.24,10.0,SSW,11.5,23.0,N/A,,Overcast,200,2013-11-06 16:54:00
12:54 PM,54.0,41.0,62,30.21,10.0,SW,11.5,20.7,N/A,,Mostly Cloudy,220,2013-11-06 17:54:00
1:54 PM,53.1,39.9,61,30.19,10.0,SW,10.4,20.7,N/A,,Partly Cloudy,230,2013-11-06 18:54:00
2:54 PM,53.1,39.9,61,30.19,10.0,SW,12.7,24.2,N/A,,Partly Cloudy,220,2013-11-06 19:54:00
3:54 PM,52.0,39.9,63,30.18,10.0,SW,11.5,-,N/A,,Scattered Clouds,220,2013-11-06 20:54:00
4:20 PM,51.8,39.2,62,30.17,10.0,South,10.4,19.6,N/A,,Mostly Cloudy,190,2013-11-06 21:20:00
4:54 PM,52.0,41.0,66,30.15,10.0,South,9.2,-,N/A,,Mostly Cloudy,190,2013-11-06 21:54:00
5:54 PM,52.0,42.1,69,30.14,10.0,SSE,6.9,17.3,N/A,,Overcast,160,2013-11-06 22:54:00
6:32 PM,51.8,42.8,71,30.13,10.0,South,6.9,-,N/A,,Overcast,180,2013-11-06 23:32:00
6:54 PM,51.1,42.1,71,30.11,10.0,South,8.1,-,N/A,,Mostly Cloudy,180,2013-11-06 23:54:00
7:54 PM,51.1,42.1,71,30.07,10.0,South,15.0,23.0,N/A,,Clear,170,2013-11-07 00:54:00
8:54 PM,51.1,41.0,68,30.05,10.0,South,9.2,18.4,N/A,,Clear,180,2013-11-07 01:54:00
9:54 PM,51.1,43.0,74,30.01,10.0,South,11.5,19.6,N/A,,Scattered Clouds,180,2013-11-07 02:54:00
10:54 PM,52.0,45.0,77,29.99,10.0,Variable,4.6,-,N/A,,Clear,0,2013-11-07 03:54:00
11:54 PM,53.1,46.0,77,29.94,10.0,SSW,15.0,25.3,N/A,,Clear,200,2013-11-07 04:54:00